Погода в Пинске

Погода в Пинске : погода сейчас, прогноз погоды и архив. Всё, что Вы хотите узнать о погоде в Пинске!

Хотите узнать прогноз погоды в Пинске? Тогда Вам сюда: Погода в Пинске

Поиск расширенной информации на нашем сайте:

Другие новости

Новости СМИ2

Главная страница сайта

Новости сайта

03.07.2017

Напоминаем, что на нашем специализированном сайте Метеоцентр.Азия вы можете получить высокодетализированные автоматические прогнозы погоды по пунктам России, СНГ и мира в авиационном формате (включающие направление и скорость ветра, видимость, явления погоды, количество и форму облачности, нижнюю и верхнюю границу облачности).


Погода в Пинске - сегодня

Время (UTC), дата Ветер
(°,м/с) 
Видим.   Явления Облачность Т
(°С)
Тd
(°С)
f(%) Тe
(°С)
Pmin
(гПа)
dP
(гПа)
Po
(мм)
O2
(г/м3)
Тmin Tmax R s Состояние
почвы
00 23.02.18 080 (В) 10 км    9/9 800 м 
[Sc]
-6.3 -8.3 86 -8  1026.5  -0.1  756  313           
03 23.02.18 090 (В) 9000 м  дымка  9/9 1080 м 
[Sc]
-6.7 -8.3 88 -6  1025.7  -0.8  755  313         
06 23.02.18 090 (В) 8000 м  слаб. снег  10/10 450 м 
[Ns]
-7 -8.5 89 -7  1025.8  0.1  755  313  -7    0.0  равномерный
сухой снег
100% 
09 23.02.18 100 (В) 3200 м  снег  10/10 270 м 
[Frnb|Ns]
-4.6 -7.5 80 -4  1025.8  0.2  756  310           
12 23.02.18 060 (СВ) 10 км  {снег}  9/9 540 м 
[Sc]
-3.6 -7.9 72 -3  1024.8  -0.9  755  309           
15 23.02.18 020 (С) 8000 м  слаб. снег  10/10 240 м 
[Frnb|Ns]
-4.2 -7.8 76 -5  1023.8  -1.1  754  309      0.2     
18 23.02.18 100 (В) 4600 м  слаб. снег  10/10 240 м 
[Frnb|Ns]
-6 -7.5 89 -7  1023.5  -0.4  754  311    -2.5  0.6   
21 23.02.18 090 (В) 9000 м  в посл. час снег  10/0 средняя, верхняя 
[Ac trans|Ci fib]
-9.3 -11 87 -9  1023.3  -0.4  754  315           
00 24.02.18 040 (СВ) 9000 м  дымка{снег}  9/0 средняя 
[Ac und]
-10.2 -11.6 89 -10  1022.5  -0.9  753  316           
03 24.02.18 050 (СВ) 7000 м  дымка  9/9 630 м 
[Sc]
-13.5 -14.7 91 -13  1022.2  -0.5  752  320      0.2   
06 24.02.18 040 (СВ) 10 км  {снег}  8/0 средняя 
[Ac trans]
-13.8 -15.5 87 -16  1022.4  0.2  753  321  -13.9    0.2  равномерный
сухой снег
100% 
09 24.02.18 070 (В) 10 км  {снег}  8/0 верхняя 
[Ci fib]
-10.6 -13.7 78 -14  1022.5  0.3  753  317           
12 24.02.18 080 (В) 10 км  в посл. час снег  8/6 450 м верхняя 
[Frnb|Ci fib]
-7 -11.7 69 -10  1022.3  0.1  753  312           
15 24.02.18 080 (В) 10 км    8/0 средняя, верхняя 
[Ac trans|Ci fib]
-7.9 -12.6 69 -12  1023.4  754  314      0.0     
18 24.02.18 060 (СВ) 10 км  {снег}  8/0 средняя, верхняя 
[Ac trans|Ci fib]
-10 -12.7 81 -14  1025.3  1.7  755  317    -6.2  0.0   
21 24.02.18 080 (В) 7000 м  слаб. снег  10/10 480 м 
[Ns]
-10.5 -12.9 82 -15  1026.4  756  318           
00 25.02.18 090 (В) 6000 м  слаб. снег  10/10 420 м 
[Ns]
-11.5 -14.2 80 -15  1027.3  0.8  756  319           
03 25.02.18 080 (В) 10 км  {снег}  8/0 верхняя 
[Ci fib]
-13.5 -15.7 83 -16  1027.6  0.2  756  322       
06 25.02.18 080 (В) 10 км  {снег}  10/0 верхняя 
[Ci fib]
-15.4 -18.1 80 -19  1029  1.2  757  325  -15.6    равномерный
сухой снег
100% 
09 25.02.18 090 (В) 12000 м    10/0 верхняя 
[Ci fib]
-11.8 -16.7 67 -15  1029.5  0.8  758  321           
12 25.02.18 060 (СВ) 12000 м    10/6 960 м верхняя 
[Sc|Ci fib]
-9.6 -16.5 57 -13  1028.6  -0.7  757  318           
15 25.02.18 080 (В) 12000 м    4/0 средняя, верхняя 
[Ac trans|Ci fib]
-9.1 -16.8 54 -11  1028.2  -0.4  757  317           
18 25.02.18 070 (В) 10 км    6/0 средняя, верхняя 
[Ac trans|Ci fib]
-12.1 -17.2 66 -14  1029.1  0.7  758  321    -7.7     
21 25.02.18 040 (СВ) 10 км    9/0 средняя 
[Ac und]
-14.2 -17.4 77 -14  1029.7  0.4  758  324           
00 26.02.18 040 (СВ) 10 км    9/9 750 м 
[Sc]
-13.6 -16.5 79 -16  1029.8  0.1  758  323           
Время (UTC), дата Ветер
(°,м/с) 
Видим.   Явления Облачность Т
(°С)
Тd
(°С)
f(%) Тe
(°С)
Pmin
(гПа)
dP
(гПа)
Po
(мм)
O2
(г/м3)
Тmin Tmax R s Состояние
почвы

Для получения пояснительной информации подведите курсор к названию столбца.

ПОГОДА в Пинске - архив

Всё, что Вы хотите узнать о погоде в Пинске - удобно и подробно!

Выберите нужную дату (начиная с 1 января 2015* года) и нажмите кнопку "Найти".
Будут отображены архивные сводки погоды по пункту Пинск, начиная с указанной даты.


Отображать данные в формате CSV (для использования в таблицах Excel)


Внимание! Наш архив погоды предназначен исключительно для личного некоммерческого использования в познавательных целях. Если Вам необходимы официальные справки о состоянии погоды (для производственных, юридических, коммерческих и т.п. целей), обращайтесь в органы Росгидромета.

*Примечание: данная дата относится к архиву по метеостанциям СССР (Россия, СНГ, Балтия).
Архив по метеостанциям Зарубежной Европы и Азии (кроме Китая) хранится 10 дней, по другим регионам земного шара (Китай, Африка, Америка, Австралия, Океания) - 1 день.

Пинск - район местоположения метеостанции


Название, широта, долгота, высота метеостанции:
Пинск 52.1°ш. 26.1°д. 142 м над ур. моря [Беларусь]

Дополнительная информация

В oтличие oт бoльшинства пoгoдных сайтoв мы публикуем пoдрoбную метеoинфoрмацию в детальнoм прoфессиoнальнoм фoрмате.

Характеристики температуры и влажнoсти вoздуха измеряются на высoте 2 м в тени вдали oт зданий и деревьев.
Скoрoсть ветра измеряется на высoте 10 м (на урoвне рoста челoвека скoрoсть ветра ниже в 1.5-2 раза). Если метеoстанция нахoдится в гoрoде или в лесу, тo скoрoсть ветра занижена на 2-4 м/с пo сравнению с oткрытым местoм. Скoрoсть ветра над акватoриями крупных рек и oзёр, а также на вершинах хoлмoв на 2-5 м/с выше, чем в oбычных услoвиях.
Атмoсфернoе давление в разных тoчках местнoсти мoжет значительнo oтличаться oт давления на метеoстанции, в зависимoсти oт услoвий рельефа (при пoдъёме на 10 м давление пoнижается примернo на 1 мм рт.ст.).